Location: Caucaguita
(10.3578°N, 66.8025°W)
Time: 14:06:25
(UTC+00:00)

Cosmos 1602 - Visible Passes

Search period start: 14 February 2026 00:00
Search period end: 24 February 2026 00:00
Orbit: 336 x 342 km, 82.5° (Epoch: 13 February)

Date Brightness Start Highest point End Pass type
(mag) Time Alt. Az. Time Alt. Az. Time Alt. Az.
14 Feb 3.7 23:03:41 10° SSW 23:06:23 53° W 23:09:04 10° N visible
15 Feb 4.8 10:23:30 10° NNE 10:26:03 34° E 10:28:37 10° SSE visible
15 Feb 6.4 23:26:51 10° WSW 23:28:07 12° W 23:29:25 10° NW visible
18 Feb 5.0 09:56:13 10° NNE 09:58:41 30° E 10:01:09 10° SSE visible
18 Feb 6.3 22:58:53 10° WSW 23:00:28 14° W 23:02:03 10° NW visible
19 Feb 3.0 10:17:09 10° NNW 10:19:48 49° W 10:22:28 10° S visible
21 Feb 5.3 09:27:29 10° NNE 09:29:48 24° E 09:32:06 10° SE visible
22 Feb 2.6 09:47:41 10° N 09:50:23 65° W 09:53:05 10° S visible
23 Feb 4.6 10:09:48 13° WNW 10:10:46 15° W 10:12:27 10° SW visible
